Location: *
(46.0770°N, 1.6444°E)
Time: 11:43:32
(UTC+00:00)

USA 32 - Pass Details

Date: 16 September 2019
Orbit: 777 x 783 km, 85.0° (Epoch: 18 October)

Event Time Altitude Azimuth Distance (km) Brightness Sun altitude
Rises 18:53:01 0° 352° (N) 3,271 7.6 -9.3°
Reaches altitude 10° 18:55:23 10° 351° (N) 2,339 6.8 -9.7°
Maximum altitude 19:00:37 75° 267° (W) 808 4.3 -10.6°
Drops below altitude 10° 19:05:49 10° 183° (S) 2,324 6.4 -11.4°
Sets 19:08:10 0° 182° (S) 3,248 7.1 -11.8°
